When you browse on this site, cookies collect data to enhance your experience and personalize the content and advertising you see.
Visit our Privacy Policy to learn more. By continuing to use the site, you agree to this use of cookies and data.
  • In United Kingdom
  • List of Countries
  • For 7 days
  • Water Temperature
  • Weather Map
  • Weather Widgets
  • user-avatar
    Login

    Hourly Weather Bonn

    Today, 12 December, Thursday

    Time Temperature Precipitation Wind Pressure Humidity
    00:00 +4°C° 0 mm 2 mps 747 mmHg 90%
    01:00 +4°C° 0 mm 2 mps 747 mmHg 90%
    02:00 +4°C° 0 mm 2 mps 746 mmHg 91%
    03:00 +4°C° 0 mm 2 mps 746 mmHg 91%
    04:00 +4°C° 0 mm 2 mps 746 mmHg 91%
    05:00 +4°C° 0 mm 2 mps 746 mmHg 91%
    06:00 +5°C° 0 mm 1 mps 746 mmHg 91%
    07:00 +4°C° 0 mm 2 mps 746 mmHg 90%
    08:00 +4°C° 0 mm 2 mps 746 mmHg 89%
    09:00 +4°C° 0 mm 2 mps 745 mmHg 87%
    10:00 +4°C° 0 mm 3 mps 745 mmHg 83%
    11:00 +4°C° 0 mm 3 mps 745 mmHg 78%
    12:00 +5°C° 0 mm 4 mps 745 mmHg 74%
    13:00 +4°C° 0 mm 4 mps 744 mmHg 75%
    14:00 +3°C° 0 mm 4 mps 743 mmHg 76%
    15:00 +3°C° 0 mm 4 mps 742 mmHg 77%
    16:00 +3°C° 0 mm 4 mps 741 mmHg 78%
    17:00 +1°C° 0 mm 5 mps 741 mmHg 79%
    18:00 +1°C° 0 mm 5 mps 740 mmHg 80%
    19:00 +1°C° 0 mm 5 mps 739 mmHg 80%
    20:00 +1°C° 0 mm 5 mps 737 mmHg 80%
    21:00 +1°C° 0 mm 6 mps 736 mmHg 80%
    22:00 +1°C° 0 mm 6 mps 735 mmHg 79%
    23:00 +1°C° 0 mm 6 mps 733 mmHg 79%

    Tomorrow, 13 December, Friday

    Time Temperature Precipitation Wind Pressure Humidity
    00:00 +1°C° 0 mm 6 mps 732 mmHg 79%
    01:00 +1°C° 0.2 mm 6 mps 730 mmHg 83%
    02:00 +1°C° 0.2 mm 6 mps 729 mmHg 87%
    03:00 +1°C° 0.2 mm 6 mps 727 mmHg 92%
    04:00 +2°C° 0.4 mm 5 mps 726 mmHg 91%
    05:00 +2°C° 0.4 mm 5 mps 725 mmHg 91%
    06:00 +3°C° 0.4 mm 5 mps 724 mmHg 91%
    07:00 +3°C° 0.9 mm 5 mps 724 mmHg 91%
    08:00 +3°C° 0.9 mm 5 mps 724 mmHg 91%
    09:00 +3°C° 0.9 mm 5 mps 724 mmHg 92%
    10:00 +4°C° 0.4 mm 4 mps 724 mmHg 89%
    11:00 +5°C° 0.4 mm 4 mps 725 mmHg 87%
    12:00 +5°C° 0.4 mm 4 mps 725 mmHg 85%
    13:00 +5°C° 0.6 mm 4 mps 726 mmHg 88%
    14:00 +5°C° 0.6 mm 4 mps 727 mmHg 90%
    15:00 +4°C° 0.6 mm 4 mps 728 mmHg 93%
    16:00 +5°C° 1.7 mm 5 mps 729 mmHg 90%
    17:00 +4°C° 1.7 mm 6 mps 730 mmHg 86%
    18:00 +4°C° 1.7 mm 7 mps 731 mmHg 83%
    19:00 +4°C° 0.1 mm 7 mps 732 mmHg 83%
    20:00 +4°C° 0.1 mm 6 mps 733 mmHg 83%
    21:00 +4°C° 0.1 mm 6 mps 734 mmHg 82%
    22:00 +5°C° 0 mm 5 mps 734 mmHg 84%
    23:00 +3°C° 0 mm 5 mps 735 mmHg 85%

    Day after tomorrow, 14 December, Saturday

    Time Temperature Precipitation Wind Pressure Humidity
    00:00 +4°C° 0 mm 4 mps 736 mmHg 86%
    01:00 +4°C° 0 mm 4 mps 736 mmHg 85%
    02:00 +4°C° 0 mm 4 mps 736 mmHg 85%
    03:00 +5°C° 0 mm 4 mps 736 mmHg 84%
    04:00 +5°C° 0.6 mm 5 mps 736 mmHg 85%
    05:00 +4°C° 0.6 mm 6 mps 735 mmHg 87%
    06:00 +4°C° 0.6 mm 6 mps 735 mmHg 88%
    07:00 +4°C° 0.2 mm 7 mps 735 mmHg 84%
    08:00 +5°C° 0.2 mm 8 mps 735 mmHg 80%
    09:00 +5°C° 0.2 mm 9 mps 736 mmHg 76%
    10:00 +5°C° 0 mm 8 mps 737 mmHg 72%
    11:00 +5°C° 0 mm 8 mps 739 mmHg 68%
    12:00 +5°C° 0 mm 8 mps 740 mmHg 64%
    13:00 +5°C° 0 mm 6 mps 741 mmHg 67%
    14:00 +5°C° 0 mm 5 mps 742 mmHg 70%
    15:00 +5°C° 0 mm 4 mps 743 mmHg 72%
    16:00 +5°C° 0.2 mm 3 mps 743 mmHg 77%
    17:00 +5°C° 0.2 mm 3 mps 743 mmHg 82%
    18:00 +5°C° 0.2 mm 3 mps 743 mmHg 88%
    19:00 +5°C° 0.2 mm 3 mps 743 mmHg 87%
    20:00 +7°C° 0.2 mm 3 mps 744 mmHg 87%
    21:00 +7°C° 0.2 mm 3 mps 744 mmHg 86%
    22:00 +7°C° 0 mm 3 mps 744 mmHg 86%
    23:00 +7°C° 0 mm 3 mps 743 mmHg 86%

    15 December, Sunday

    Time Temperature Precipitation Wind Pressure Humidity
    00:00 +7°C° 0 mm 3 mps 743 mmHg 86%
    01:00 +7°C° 0.4 mm 3 mps 742 mmHg 87%
    02:00 +7°C° 0.4 mm 4 mps 742 mmHg 87%
    03:00 +8°C° 0.4 mm 4 mps 741 mmHg 88%
    04:00 +8°C° 0.4 mm 5 mps 741 mmHg 85%
    05:00 +8°C° 0.4 mm 5 mps 742 mmHg 82%
    06:00 +8°C° 0.4 mm 6 mps 742 mmHg 79%
    07:00 +8°C° 0.1 mm 6 mps 743 mmHg 78%
    08:00 +7°C° 0.1 mm 6 mps 744 mmHg 77%
    09:00 +6°C° 0.1 mm 5 mps 745 mmHg 77%
    10:00 +6°C° 0 mm 5 mps 746 mmHg 73%
    11:00 +7°C° 0 mm 5 mps 747 mmHg 69%
    12:00 +7°C° 0 mm 5 mps 748 mmHg 65%
    13:00 +6°C° 0 mm 4 mps 748 mmHg 68%
    14:00 +7°C° 0 mm 3 mps 749 mmHg 71%
    15:00 +6°C° 0 mm 2 mps 749 mmHg 74%
    16:00 +6°C° 0 mm 2 mps 749 mmHg 75%
    17:00 +5°C° 0 mm 3 mps 749 mmHg 76%
    18:00 +5°C° 0 mm 3 mps 749 mmHg 77%
    19:00 +5°C° 0 mm 3 mps 749 mmHg 79%
    20:00 +5°C° 0 mm 3 mps 749 mmHg 81%
    21:00 +6°C° 0 mm 4 mps 749 mmHg 84%
    22:00 +7°C° 0 mm 3 mps 749 mmHg 84%
    23:00 +7°C° 0 mm 3 mps 749 mmHg 85%

    16 December, Monday

    Time Temperature Precipitation Wind Pressure Humidity
    00:00 +7°C° 0 mm 3 mps 749 mmHg 86%
    01:00 +7°C° 0.1 mm 3 mps 749 mmHg 87%
    02:00 +7°C° 0.1 mm 3 mps 749 mmHg 87%
    03:00 +7°C° 0.1 mm 3 mps 749 mmHg 88%
    04:00 +7°C° 0.2 mm 2 mps 749 mmHg 89%
    05:00 +7°C° 0.2 mm 2 mps 749 mmHg 90%
    06:00 +7°C° 0.2 mm 2 mps 749 mmHg 91%
    07:00 +8°C° 0.5 mm 2 mps 749 mmHg 91%
    08:00 +8°C° 0.5 mm 2 mps 749 mmHg 90%
    09:00 +8°C° 0.5 mm 2 mps 749 mmHg 90%
    10:00 +8°C° 0.8 mm 2 mps 749 mmHg 92%
    11:00 +8°C° 0.8 mm 2 mps 749 mmHg 93%
    12:00 +9°C° 0.8 mm 1 mps 748 mmHg 94%
    13:00 +9°C° 0.5 mm 1 mps 748 mmHg 95%
    14:00 +8°C° 0.5 mm 2 mps 747 mmHg 95%
    15:00 +8°C° 0.5 mm 2 mps 747 mmHg 95%
    16:00 +8°C° 0.7 mm 2 mps 747 mmHg 94%
    17:00 +9°C° 0.7 mm 2 mps 747 mmHg 92%
    18:00 +9°C° 0.7 mm 3 mps 747 mmHg 91%
    19:00 +9°C° 0.2 mm 3 mps 747 mmHg 90%
    20:00 +9°C° 0.2 mm 2 mps 747 mmHg 89%
    21:00 +9°C° 0.2 mm 2 mps 747 mmHg 88%
    22:00 +9°C° 0.1 mm 2 mps 747 mmHg 87%
    23:00 +9°C° 0.1 mm 2 mps 747 mmHg 86%

    17 December, Tuesday

    Time Temperature Precipitation Wind Pressure Humidity
    00:00 +9°C° 0.1 mm 2 mps 747 mmHg 86%
    01:00 +8°C° 0 mm 2 mps 748 mmHg 87%
    02:00 +9°C° 0 mm 1 mps 748 mmHg 89%
    03:00 +9°C° 0 mm 1 mps 748 mmHg 90%
    04:00 +9°C° 0.3 mm 1 mps 748 mmHg 91%
    05:00 +9°C° 0.3 mm 1 mps 748 mmHg 91%
    06:00 +9°C° 0.3 mm 1 mps 748 mmHg 92%
    07:00 +9°C° 1.5 mm 1 mps 748 mmHg 93%
    08:00 +9°C° 1.5 mm 1 mps 749 mmHg 94%
    09:00 +8°C° 1.5 mm 2 mps 749 mmHg 95%
    10:00 +8°C° 1.7 mm 2 mps 749 mmHg 95%
    11:00 +7°C° 1.7 mm 2 mps 750 mmHg 95%
    12:00 +7°C° 1.7 mm 2 mps 750 mmHg 95%
    13:00 +7°C° 0.6 mm 2 mps 750 mmHg 94%
    14:00 +7°C° 0.6 mm 2 mps 751 mmHg 94%
    15:00 +6°C° 0.6 mm 2 mps 751 mmHg 93%
    16:00 +6°C° 0.2 mm 2 mps 752 mmHg 92%
    17:00 +6°C° 0.2 mm 2 mps 753 mmHg 92%
    18:00 +6°C° 0.2 mm 2 mps 753 mmHg 91%
    19:00 +6°C° 0 mm 2 mps 755 mmHg 91%
    20:00 +5°C° 0 mm 2 mps 756 mmHg 92%
    21:00 +5°C° 0 mm 2 mps 757 mmHg 92%
    22:00 +6°C° 0 mm 1 mps 757 mmHg 93%
    23:00 +5°C° 0 mm 1 mps 758 mmHg 93%
    Show more